#timestamp,LO_Frequency,Hit,StdDev 
1598572115.9,286047047.8,P
1598572135.7,286047050.4,P
1598572155.6,286047050.2,P
1598572175.4,286047050.3,Y
1598572195.2,286046999.9,P
1598572215.1,286047002.7,N
1598572216.0,286047002.7,N
1598572235.8,286047002.5,N
1598572255.7,286047001.9,N
1598572275.5,286047002.1,N
1598572295.3,286047004.2,N
1598572315.2,286047003.5,N
1598572335.0,286047004.4,N
1598572335.9,286047004.4,N
1598572355.7,286046999.7,N
1598572375.6,286047001.4,N
1598572395.4,286047004.1,N
1598572415.3,286047003.8,N
1598572435.1,286047003.8,N
1598572436.0,286047003.8,N
1598572455.8,286047003.5,N
1598572475.7,286047003.6,N
1598572495.5,286047005.9,N
1598572515.3,286047006.8,N
1598572535.2,286047005.5,N
1598572555.0,286047005.7,N
1598572555.9,286047005.7,N
1598572575.8,286047004.8,N
1598572595.6,286047004.7,N
1598572615.4,286047004.6,N
1598572635.3,286047007.6,N
1598572655.1,286047007.5,N
1598572675.9,286047007.0,N
1598572695.7,286047006.3,N
1598572715.5,286047008.4,Y
1598572735.4,286047004.9,P
1598572755.2,286047004.6,P
1598572775.0,286047007.6,P
1598572776.0,286047007.6,Y
1598572795.8,286047000.5,P
